User: anonymous   Login
Location: Dąbrówka
(52.2799°N, 15.8070°E)
Time: 01:01:13
(UTC+02:00)
Language:

RS-15 - Orbit

View from above orbital plane
View from above orbital plane
View from above satellite
View from above satellite

Ground track
Ground track

The orbit data is extracted from the following two-line orbital elements,

1 23439U 94085A   19170.84645921 -.00000044  00000-0 -57741-4 0  9992
2 23439  64.8163 114.2569 0146192 112.9871 248.6549 11.27568072  8185
Epoch (UTC): 19 June 2019 20:18:54
Eccentricity: 0.0146192
inclination: 64.8163°
perigee height: 1899 km
apogee height: 2145 km
right ascension of ascending node: 114.2569°
argument of perigee: 112.9871°
revolutions per day: 11.27568072
mean anomaly at epoch: 248.6549°
orbit number at epoch: 818

The dashed part of the orbit path shows where the satellite is in the earth's shadow,  

DLR